sat.trackr.live / text

‹ back to catalog

BRISAT

NORAD 41591 · 2016-039A

PAYLOAD ACTIVE UNKNOWN

§ Identity

Operator
Country
INDO
Launch date
2016-06-18
Launch site
FRGUI
Launch vehicle
Mass (kg)
RCS (m²)
9.47

Purposes: comms

External: N2YO · Heavens-Above · Gunter

§ Orbital elements

Epoch: 2026-09-19T11:29:27.969216Z

Period
1,436.09 min
Inclination
0.0166°
Eccentricity
0.0002207
Mean motion
1.00272538 rev/d
Perigee alt
35,777.1 km
Apogee alt
35,795.7 km
Semi-major
42,164.5 km
B*
0.0000e+0
RAAN
212.9756°
Arg perigee
314.1746°
Mean anomaly
154.1144°
Rev number
3,755

§ Raw data

BRISAT1 41591U 16039A   26262.47879594 -.00000200  00000+0  00000+0 0  99912 41591   0.0166 212.9756 0002207 314.1746 154.1144  1.00272538 37552

JSON: /api/v1/satellites/41591 · /tle

For live sub-satellite position, see the globe view (requires WebGL).

§ Visibility from observer

Set your observer location to see the next 7 days of passes ≥ 10°. The values pass through the URL so the page stays shareable.

No JS? Fill the form by hand. The geolocation button needs JavaScript.